OPTUS D3

Last updated on Mon Sep 07 2026 00:02:57 GMT+0000 (Coordinated Universal Time)

1 35756U 09044B 26249.54372578 -.00000163 00000+0 00000+0 0 9996 2 35756 0.8409 268.0793 0004107 264.4174 165.0065 1.00270220 62380
UTC large
Height (km)
Speed (km/s)
/
Latitude / Longitude
Inclination (degrees)
Orbital Period (minutes)
Azimuth
Elevation
Range (km)
Doppler Factor

Next 0 passes for location: London (51.5072 / 0.1276)

No passes found over London.
OPTUS D3